Location: Ottawa
(45.4170°N, 75.7000°W)
Time: 22:13:53
(UTC-05:00)

Envisat - Visible Passes

Search period start: 24 January 2020 00:00
Search period end: 03 February 2020 00:00
Orbit: 764 x 766 km, 98.1° (Epoch: 24 January)

Date Brightness Start Highest point End Pass type
(mag) Time Alt. Az. Time Alt. Az. Time Alt. Az.
24 Jan 6.4 05:14:56 10° ENE 05:16:05 11° E 05:17:13 10° E visible
24 Jan 3.1 06:50:46 10° NNE 06:55:53 84° ESE 07:00:57 10° SSW visible
24 Jan 3.6 18:07:29 10° S 18:12:29 61° W 18:17:32 10° NNW visible
25 Jan 4.5 06:14:14 10° NNE 06:19:00 39° E 06:23:44 10° SSE visible
25 Jan 3.0 17:30:42 10° SSE 17:35:43 64° ENE 17:40:45 10° N visible
25 Jan 5.9 19:11:56 10° SW 19:15:12 17° W 19:18:29 10° NW visible
26 Jan 5.9 05:38:20 10° NE 05:41:55 19° E 05:45:28 10° SE visible
26 Jan 4.7 18:33:27 10° SSW 18:38:06 36° W 18:42:46 10° NNW visible
27 Jan 3.5 06:39:29 10° NNE 06:44:34 68° ESE 06:49:37 10° S visible
27 Jan 3.2 17:56:07 10° S 18:01:11 76° WSW 18:06:18 10° NNW visible
28 Jan 5.0 06:03:06 10° NNE 06:07:38 32° E 06:12:08 10° SSE visible
28 Jan 5.6 18:59:57 10° SW 19:03:47 21° W 19:07:38 10° NW visible
29 Jan 6.1 05:27:35 10° NE 05:30:30 15° E 05:33:23 10° SE visible
29 Jan 4.3 18:21:54 10° S 18:26:44 44° W 18:31:37 10° NNW visible
30 Jan 3.9 06:28:15 10° NNE 06:33:15 54° E 06:38:13 10° S visible
30 Jan 3.0 17:44:48 10° SSE 17:49:53 87° ENE 17:55:00 10° NNW visible
30 Jan 6.3 19:27:33 10° WSW 19:29:35 12° W 19:31:38 10° WNW visible
31 Jan 5.4 05:52:02 10° NE 05:56:15 26° E 06:00:26 10° SSE visible
31 Jan 5.3 18:48:10 10° SSW 18:52:23 26° W 18:56:39 10° NW visible
01 Feb 6.4 05:17:12 10° ENE 05:19:03 12° E 05:20:53 10° ESE visible
01 Feb 3.8 18:10:26 10° S 18:15:24 56° W 18:20:25 10° NNW visible
02 Feb 4.4 06:17:04 10° NNE 06:21:55 43° E 06:26:44 10° S visible
02 Feb 3.0 17:33:34 10° SSE 17:38:36 70° ENE 17:43:41 10° N visible
02 Feb 6.1 19:15:09 10° SW 19:18:09 16° W 19:21:10 10° NW visible
